Shaonian Xing (43199 NORAD) Tracking and Keplerian Element Data

This shows tracking and keplerian element data for the satellite.

Feedback or suggestion? Click here.




ElementValue
Catalog43199
NameShaonian Xing
Epoch Orbit6177
Epoch Day73.91585771
Epoch Year2019
RAAN202.3138
Inclination97.3618
Eccentricity0.0015663
Argument of Perigee285.4596
Mean Anonmoly74.4906
Mean Motion15.24467018
Decay Rate1.291E-05
L11 43199U 18015H 19073.91585771 .00001291 00000-0 55349-4 0 9997
L22 43199 97.3618 202.3138 0015663 285.4596 74.4906 15.24467018 61770

Live tracking and technical data element details for Shaonian Xing (NORAD 43199). Shaonian Xing can be tracked NOW for your location showing map with azimuth and elevation plus other details from your city location.

Track the satellite on the map from your city or location and see movement details for azimuth, elevation, latitude, longitude, range, height, and movement on the map or in text.







IsCatalogInMostPopularTable: catalog: 43199, numindb: 227
Update: records affected: 1



GetName: 43199 Shaonian Xing

Hit Count: updated at: Wed, 20 Mar 2019 05:36:21 GMT